Showing default

IRIDIUM 152, 43479

Orbit data source: Space-Track

IRIDIUM 152, 43479 is a payload satellite owned by Iridium (US) in LEO that was launched on Tue, 22 May 2018 UTC via an FALCON 9 launch vehicle from the Air Force Western Test Range (AFWTR). Payload-class satellites include a variety of spacecraft equipped with specific instruments for various scientific and technological missions. These include communications satellites like Starlink; space stations such as the ISS; scientific satellites like the Hubble; Earth observation satellites from companies like Planet Labs, Umbra, and HawkEye 360; GPS; miniature CubeSats for education and research; and military/defense satellites.

Loading next visibility...
Identifier
43479, 2018-047D
Orbit
LEO
Country
Flag of USUS
Related business
Manufacturer
OATK SSG Gilbert
Mission
Operational Commercial Communications
Bus & Motor
ELITEBUS, Unknown motor
Mass
860 kg wet, 700 kg dry
Launch date (UTC)
2018-05-22 (7 years ago)
Launch vehicle
FALCON 9
Launch site
Air Force Western Test Range (AFWTR)
Object type
Payload
Rocket body
Debris
Shape & HBR
Trap Box + 2 Pan, 4.8 m
Radar Cross Section
10.154 m², Large (>1 m²)

Expand to show TLE details & history
Last TLE update: 17 hours ago

TLE from 17 hours ago
0 IRIDIUM 152
1 43479U 18047D   25314.86590238  .00000122  00000-0  36603-4 0  9990
2 43479  86.4008 179.5479 0002115  82.4998 277.6438 14.34219221391195
Epoch: 2025-11-10T20:46Z
TLE epoch observation values (Epoch: 2025-11-10T20:46:53.965Z)
Latitude
-0.00004°
Longitude
177.56237°
Altitude
780.512 km
Speed
7.464 km/s
True Right ascension
11h 58m 11s
True Declination
0° 00' 00"
Sunlit
Object was in daylight at epoch
Visualization orbit readout
Latitude
Unknown
Longitude
Unknown
Altitude
Unknown
Speed
Unknown
Apparent Right ascension
Unknown
Apparent Declination
Unknown
Sunlit
N/A
Visualization observer readout
Local Sidereal Time
10:13:32
Azimuth
Unknown
Elevation
Unknown
Doppler factor
Unknown
Orbital elements
Apogee altitude
776.139 km
Perigee altitude
773.114 km
Semi-major axis
7,152.764 km
Eccentricity
0.00021
Inclination
86.4008°
RAAN
179.5479°
Arg. of periapsis
82.4998°
True anomaly
277.61978°
Mean anomaly
277.6438°
Eccentric anomaly
277.63179°
Mean motion
3.58783 °/min
Orbital period
100.34 mins
BSTAR
0.000036603
Loading maneuver chart data...
Computing Atmospheric mass density...
Loading historical data...
Loading historical data...
Loading historical data...
Loading historical data...
Loading historical data...
Loading historical data...
Loading historical data...

Documentation

Showing up to 5 results
|